Location: *
(51.8167°N, 12.5000°E)
Time: 12:20:43
(UTC+00:00)

Resurs 01 Rocket - Pass Details

Date: 16 September 2019
Orbit: 635 x 644 km, 98.0° (Epoch: 18 October)

Event Time Altitude Azimuth Distance (km) Brightness Sun altitude
Exits shadow 18:18:23 12° 115° (ESE) 1,923 3.4 -9.2°
Maximum altitude 18:21:43 26° 62° (ENE) 1,264 2.8 -9.7°
Drops below altitude 10° 18:25:25 10° 6° (N) 2,051 4.4 -10.2°
Sets 18:27:54 0° 354° (N) 2,966 5.4 -10.6°
